User: anonymous   Login
Location: Drocourt
(49.0571°N, 1.7669°E)
Time: 03:46:44
(UTC+00:00)
Language:

A-11 Canister half - Orbit

View from above orbital plane
View from above orbital plane
View from above satellite
View from above satellite

Ground track
Ground track

The orbit data is extracted from the following two-line orbital elements,

1 00051U 60009C   24112.60924470 -.00000006  00000-0  77040-3 0  9991
2 00051  47.2137 323.2166 0108589  18.0360 342.4237 12.18327038835279
Epoch (UTC): 21 April 2024 14:37:18
Eccentricity: 0.0108589
inclination: 47.2137°
perigee height: 1513 km
apogee height: 1686 km
right ascension of ascending node: 323.2166°
argument of perigee: 18.0360°
revolutions per day: 12.18327038
mean anomaly at epoch: 342.4237°
orbit number at epoch: 83527

The dashed part of the orbit path shows where the satellite is in the earth's shadow,  

DLR